SCP
0 0 0 0 0 0 0 0 0 0 0 0 0 0 0 0 0 0 0 0 0 0 0 0 0 0 0 0 0 0 0 0 0 0 0 0 0 0 0 0 0 0 0
1 0 0 0 0 0 0 0 0 0 0 0 0 0 0 0 0 0 0 0 0 0 0 0 0 0 0 0 0 0 0 0 0 0 0 0 0 0 0 0 0 0 0
1 0 0 0 0 0 0 0 0 0 0 0 0 0 0 0 0 0 0 0 0 0 0 0 0 0 0 0 0 0 0 0 0 0 0 0 0 0 0 0 0 0 0
1 0 0 0 0 0 0 0 0 0 0 0 0 0 0 0 0 0 0 0 0 0 0 0 0 0 0 0 0 0 0 0 0 0 0 0 0 0 0 0 0 0 0
0 0 0 0 0 0 0 0 0 0 0 0 0 0 0 0 0 0 0 0 0 0 0 0 0 0 0 0 0 0 0 0 0 0 0 0 0 0 0 0 0 0 0
1 1 0 0 1 1 0 0 0 0 0 0 0 0 0 0 0 0 0 0 0 0 0 0 0 0 0 0 0 0 0 0 0 0 0 0 0 0 0 0 0 0 0
1 1 1 1 1 1 1 1 1 1 0 0 0 0 0 0 0 0 0 0 0 0 0 0 0 0 0 0 0 0 0 0 0 0 0 0 0 0 0 0 0 0 0
1 1 1 1 1 1 1 1 1 1 1 0 0 0 0 0 0 0 0 0 0 0 0 0 0 0 0 0 0 0 0 0 0 0 0 0 0 0 0 0 0 0 0
1 1 1 1 1 1 1 1 1 1 1 1 1 0 0 0 0 0 0 0 0 0 0 0 0 0 0 0 0 0 0 0 0 0 0 0 0 0 0 0 0 0 0
1 1 1 1 1 1 1 1 1 1 1 1 0 0 0 0 0 0 0 0 0 0 0 0 0 0 0 0 0 0 0 0 0 0 0 0 0 0 0 0 0 0 0
1 1 1 1 1 1 1 1 1 0 0 0 0 0 0 0 0 0 0 0 0 0 0 0 0 0 0 0 0 0 0 0 0 0 0 0 0 0 0 0 0 0 0
1 1 1 1 1 1 1 1 1 0 0 0 0 0 0 0 0 0 0 0 0 0 0 0 0 0 0 0 0 0 0 0 0 0 0 0 0 0 0 0 0 0 0
1 1 1 1 1 1 1 1 1 1 1 1 0 0 0 0 0 0 0 0 0 0 0 0 0 0 0 0 0 0 0 0 0 0 0 0 0 0 0 0 0 0 0
1 1 1 1 2 2 1 1 1 1 1 1 1 1 0 0 0 0 0 0 0 0 0 0 0 0 0 0 0 0 0 0 0 0 0 0 0 0 0 0 0 0 0
1 1 1 1 2 2 2 1 1 1 1 1 1 1 0 0 0 0 0 0 0 0 0 0 0 0 0 0 0 0 0 0 0 0 0 0 0 0 0 0 0 0 0
1 1 1 1 2 2 2 2 2 1 1 1 1 1 0 0 0 0 0 0 0 0 0 0 0 0 0 0 0 0 0 0 0 0 0 0 0 0 0 0 0 0 0
1 1 1 2 2 2 2 2 2 1 1 1 0 0 0 0 0 0 0 0 0 0 0 0 0 0 0 0 0 0 0 0 0 0 0 0 0 0 0 0 0 0 0
1 2 2 2 2 2 2 2 2 1 1 1 0 0 0 1 0 0 0 0 0 0 0 0 0 0 0 0 0 0 0 0 0 0 0 0 0 0 0 0 0 0 0
1 1 2 2 2 2 2 2 1 1 1 1 0 0 0 1 0 0 0 0 0 0 0 0 0 0 0 0 0 0 0 0 0 0 0 0 0 0 0 0 0 0 0
1 1 1 1 1 1 2 2 1 1 1 1 0 0 0 0 0 0 0 0 0 0 0 0 0 0 0 0 0 0 0 0 0 0 0 0 0 0 0 0 0 0 0
0 1 1 1 1 1 1 1 1 1 1 1 0 0 0 0 0 0 0 0 0 0 0 0 0 0 0 0 0 0 0 0 0 0 0 0 0 0 0 0 0 0 0
0 0 0 1 1 1 1 1 1 1 1 1 0 0 0 0 0 0 0 0 0 0 0 0 0 0 0 0 0 0 0 0 0 0 0 0 0 0 0 0 0 0 0
0 0 0 0 1 1 1 1 1 1 1 0 0 0 0 0 0 0 0 0 0 0 0 0 0 0 0 0 0 0 0 0 0 0 0 0 0 0 0 0 0 0 0
0 0 0 0 0 0 0 0 0 0 0 0 0 0 0 0 0 0 0 0 0 0 0 0 0 0 0 0 0 0 0 0 0 0 0 0 0 0 0 0 0 0 0
0 0 0 0 0 0 0 0 0 0 0 0 0 0 0 0 0 0 0 0 0 0 0 0 0 0 0 0 0 0 0 0 0 0 0 0 0 0 0 0 0 0 0
0 0 0 0 0 0 0 0 0 0 0 0 0 0 0 0 0 0 0 0 0 0 0 0 0 0 0 0 0 0 0 0 0 0 0 0 0 0 0 0 0 0 0
Wind_Speed
11 13 13 13 13 13 12 12 12 12 12 13 13 13 14 15 15 16 16 17 18 18 19 20 20 20 20 20 20 20 21 22 23 23 23 23 23 24 24 23 20 17 25
15 14 13 13 13 13 13 12 12 12 12 13 13 14 14 15 15 16 16 17 18 19 19 20 20 20 20 20 19 19 19 19 19 20 21 20 22 23 24 24 22 18 25
16 15 13 13 13 13 13 12 12 12 12 13 14 14 14 15 16 16 17 17 18 19 19 19 20 20 20 19 19 19 19 19 19 19 17 11 15 23 24 24 24 25 25
16 14 13 13 14 14 13 12 12 12 12 13 14 14 15 15 16 16 16 17 18 18 19 19 19 19 19 18 18 19 19 20 19 18 12 11 11 22 24 24 25 25 25
14 13 14 14 14 14 13 13 12 12 12 13 13 14 15 15 16 16 16 17 17 18 18 19 19 19 18 17 17 18 18 18 18 15 10 10 10 21 24 24 24 24 24
13 14 14 14 14 14 13 13 13 13 13 13 13 14 14 15 15 16 16 16 17 17 18 18 18 18 17 17 17 18 18 19 14 11 10 9 10 21 23 24 24 24 24
12 13 13 13 13 13 13 13 13 13 13 13 13 14 14 14 15 15 16 16 17 17 17 17 17 17 17 16 16 17 17 18 11 10 9 9 13 22 23 23 24 24 24
11 13 12 12 13 12 12 12 13 13 13 13 14 14 14 14 15 15 15 16 16 17 17 17 17 16 16 16 17 17 16 15 13 12 9 9 17 22 23 23 24 24 25
11 12 11 10 11 12 12 12 12 12 13 13 14 14 13 13 14 14 14 15 16 16 16 17 17 16 16 17 17 17 16 16 10 8 11 9 18 21 23 23 23 24 24
9 10 11 10 10 9 9 11 12 12 12 13 13 13 13 13 13 13 12 14 16 16 16 17 17 16 16 16 16 15 16 13 10 9 6 11 19 21 22 23 24 24 24
7 8 10 11 10 10 9 11 11 11 12 13 12 14 11 7 7 8 11 14 15 16 16 17 16 16 14 14 15 16 13 8 9 7 6 15 19 21 22 23 23 24 24
8 8 8 10 10 10 9 9 7 7 8 7 7 8 5 6 7 9 12 13 14 14 15 15 14 11 8 5 9 11 7 9 8 6 9 18 20 21 22 23 23 24 24
9 8 8 9 9 9 7 8 5 5 6 6 8 6 6 7 7 6 5 6 7 8 6 7 6 5 6 6 6 6 8 7 6 6 10 18 20 21 22 23 23 23 23
9 9 8 9 9 9 8 7 7 5 5 5 7 7 6 5 6 6 4 5 4 3 4 4 4 7 7 8 8 9 9 7 7 6 10 18 20 21 22 22 22 22 22
11 11 10 9 9 9 8 7 7 7 7 7 6 6 7 6 6 6 5 4 4 4 5 5 6 7 7 8 8 9 9 10 9 9 8 19 20 20 21 21 21 22 22
11 11 11 10 9 9 8 7 7 7 6 6 6 7 8 6 6 6 6 5 5 5 5 6 7 7 7 7 8 8 9 8 9 9 8 12 20 20 20 20 20 21 21
10 11 11 10 9 9 9 8 7 7 7 7 7 8 8 7 8 7 6 6 5 6 8 8 8 7 7 8 8 8 7 8 8 9 8 7 9 17 20 19 19 19 19
9 10 11 9 10 10 8 8 6 6 7 6 7 8 9 8 9 9 7 6 7 7 7 8 7 8 7 7 7 6 6 6 8 8 7 7 6 7 13 19 19 18 18
10 11 11 11 11 10 8 7 6 6 7 6 6 7 9 9 10 9 8 7 9 7 7 8 7 8 9 8 7 6 5 6 6 8 8 8 7 6 6 13 17 18 18
9 9 10 11 11 9 7 6 5 6 6 6 6 7 9 9 10 9 8 10 10 8 7 8 9 8 8 9 10 8 5 5 5 5 6 6 6 7 6 7 6 10 16
9 9 11 11 11 9 7 7 7 7 6 5 6 8 10 10 11 10 9 11 10 10 10 11 11 12 9 9 7 6 5 5 5 4 4 4 5 6 6 6 5 4 6
10 10 10 10 11 11 8 6 4 5 4 4 4 7 9 10 11 10 12 11 11 10 11 12 13 8 7 7 6 6 4 2 2 3 3 4 4 4 5 6 5 5 4
9 9 8 9 10 10 8 5 4 4 3 3 5 6 7 10 11 11 13 12 12 12 14 15 15 12 10 7 5 6 7 6 3 2 3 3 4 3 3 4 4 4 4
7 6 7 7 8 9 9 9 9 8 8 8 6 6 7 9 10 11 12 13 13 11 14 15 15 8 13 10 4 2 3 7 7 4 2 3 4 4 3 3 3 3 3
5 5 5 6 6 7 8 9 10 8 6 4 5 7 7 7 9 10 11 12 13 11 13 14 12 10 10 9 7 4 3 4 5 6 5 4 3 3 3 3 3 2 2
4 4 4 5 5 5 7 7 8 8 7 8 8 8 7 5 6 9 10 11 12 11 13 14 13 12 10 8 5 5 5 5 6 5 5 5 4 3 3 3 3 2 2
Wind_Direction
121 127 133 127 120 112 105 99 94 90 86 83 82 80 80 79 77 76 79 79 78 77 76 74 73 72 72 72 72 72 72 72 70 66 62 60 60 60 59 57 58 56 61
123 130 133 127 122 116 110 104 99 95 90 87 85 83 83 83 81 80 81 81 81 79 77 76 75 74 73 73 72 72 72 72 73 71 66 61 62 62 62 60 61 61 61
123 130 133 127 124 120 115 109 104 99 95 91 88 85 84 86 84 83 82 82 83 81 79 78 77 75 74 73 72 71 70 69 70 68 65 60 62 64 65 63 62 62 61
127 136 136 129 128 125 120 114 108 104 100 95 92 88 86 87 87 84 84 85 85 83 82 80 79 77 75 74 72 70 69 69 70 69 64 61 63 68 67 66 65 64 63
130 133 131 135 132 130 125 120 115 109 104 100 96 93 90 89 89 87 86 87 87 86 84 82 81 79 76 73 71 69 69 72 71 71 68 64 65 71 71 70 68 66 65
130 129 137 139 137 134 131 127 121 115 110 105 100 97 95 93 91 90 89 89 89 88 87 85 83 80 77 73 69 67 69 71 67 65 64 64 67 73 73 72 71 69 67
130 130 143 142 140 138 137 133 127 121 116 111 107 103 101 99 97 95 93 92 92 90 89 87 85 82 78 73 68 66 70 76 72 67 66 66 72 75 75 73 72 70 68
130 133 144 144 143 143 141 137 133 128 123 119 114 110 107 104 101 99 97 96 95 94 93 91 88 85 80 73 67 62 63 74 76 73 66 68 75 76 76 74 72 70 69
134 137 146 151 149 147 144 141 138 133 129 125 119 112 106 104 102 100 100 101 100 99 97 94 91 88 82 75 67 61 63 67 64 67 70 67 75 76 76 74 73 71 69
142 147 153 159 159 154 149 146 142 137 132 126 120 112 106 104 102 99 99 104 104 103 100 97 93 89 82 74 67 62 64 63 62 61 63 74 77 78 77 75 73 71 69
154 158 159 163 163 160 158 154 145 138 134 128 125 128 127 121 112 101 103 107 108 106 104 101 98 93 82 72 65 65 64 64 62 58 63 78 80 79 78 76 75 72 70
175 174 166 168 165 163 162 153 153 149 147 145 147 156 150 125 112 109 102 106 107 107 107 108 106 97 82 65 63 66 66 64 60 56 67 78 82 82 80 78 75 73 71
181 180 175 172 168 165 159 159 162 158 163 157 163 170 126 114 118 116 112 108 111 113 109 107 85 65 63 62 67 68 70 65 58 55 61 75 82 83 81 79 76 73 71
185 186 183 175 170 168 162 165 164 163 167 163 169 160 139 139 141 144 145 145 143 120 109 87 81 77 71 69 70 71 73 72 64 58 58 68 77 80 81 79 77 74 72
187 185 185 182 175 171 166 169 167 169 169 165 164 162 156 152 152 150 148 143 129 120 113 105 97 90 82 76 76 78 77 76 72 64 57 62 69 74 77 78 77 75 72
187 184 181 185 182 173 172 172 169 169 167 163 164 168 164 157 153 148 143 139 132 130 122 115 110 100 90 85 80 77 78 79 77 74 64 57 62 67 72 74 75 74 72
187 181 180 184 185 180 176 173 169 168 167 167 168 170 169 161 153 148 146 141 136 129 124 118 110 105 102 95 85 77 76 77 79 75 69 60 53 58 66 70 72 72 71
184 182 181 179 186 186 179 174 169 167 167 169 168 170 171 164 157 152 152 148 139 133 131 130 128 121 112 105 96 87 79 78 77 74 69 64 57 52 57 65 66 67 68
187 181 181 178 185 187 180 172 169 166 168 169 168 170 171 165 162 157 155 150 144 139 138 140 134 132 123 113 103 90 80 79 80 82 76 70 66 60 51 60 58 61 64
187 182 180 179 182 179 174 166 164 165 169 168 171 172 170 168 164 156 153 153 150 146 146 145 138 129 127 124 110 93 80 79 81 85 87 80 73 70 60 53 39 47 57
182 184 184 182 181 179 179 181 180 183 176 173 171 170 170 168 165 160 158 158 159 157 157 151 141 136 135 130 110 98 73 72 84 88 94 91 83 78 71 60 48 40 40
184 187 188 187 184 186 189 184 175 162 165 166 162 168 170 169 168 166 166 166 166 157 154 155 150 142 157 165 138 130 126 113 94 105 108 110 104 91 84 78 64 59 53
184 188 192 191 187 188 179 157 125 110 114 156 177 176 174 172 173 172 174 170 171 168 168 167 166 160 169 187 179 153 155 169 150 144 140 126 124 112 104 99 80 69 75
185 180 187 190 185 184 177 175 173 184 190 188 175 173 170 173 175 176 176 175 175 175 175 176 176 171 167 176 191 196 159 143 146 146 155 149 141 134 130 118 105 89 89
159 165 178 186 188 182 182 184 191 199 195 160 154 164 170 173 177 177 179 179 180 180 180 181 179 177 179 179 172 160 146 133 129 139 159 170 160 158 146 136 132 126 111
130 143 161 182 190 177 180 186 195 198 182 164 166 172 174 172 177 181 181 184 184 184 184 186 186 185 184 181 174 162 162 162 170 152 146 153 160 173 158 152 152 149 138